Orbital elements: 2009 HE Earth MOID = 0.0841 AU Epoch 2009 June 18.0 TT = JDT 2455000.5 MPC M 337.51781 (2000.0) P Q n 0.66390391 Peri. 118.43650 +0.67079416 +0.69924183 a 1.3013653 Node 200.88516 -0.62994425 +0.71308537 e 0.4094877 Incl. 43.89581 +0.39141465 -0.05069637 P 1.48 H 20.7 G 0.15 U 9